Wind_Speed
9 8 4 2 4 4 5 13 17 15 14 10 13 11 7 2 2 3 16 24 33 34 30 28 26 24 22 22 21 20 20 20 19 19 18 18 18 19 17 16 15 14 13 12 12 11 11 12 12
10 8 3 1 5 4 9 17 17 18 14 11 10 11 13 6 6 12 14 29 37 35 32 30 26 23 21 20 20 19 19 19 18 18 18 18 17 17 15 14 13 11 12 11 10 10 11 12 12
7 4 4 4 1 2 2 17 14 10 7 3 5 4 3 4 12 15 20 34 35 35 33 31 28 25 21 19 19 19 19 18 17 16 16 15 16 15 14 12 11 10 9 10 9 8 9 10 13
10 6 4 4 5 5 10 13 15 25 2 9 2 5 3 6 9 20 34 36 34 34 32 30 28 25 22 20 20 20 19 18 16 15 14 13 13 13 12 10 9 8 7 8 8 7 8 9 13
4 4 5 2 4 1 7 17 26 15 4 2 4 4 2 7 24 38 35 33 32 33 32 29 27 24 22 20 19 18 18 18 15 14 12 12 11 11 10 9 7 7 7 7 9 8 8 10 13
4 3 3 0 4 4 4 12 9 12 5 2 3 7 3 2 29 31 30 30 28 32 31 29 26 23 21 20 18 18 18 17 15 14 13 12 11 9 9 8 6 7 6 7 8 9 9 10 12
5 4 3 1 2 3 8 8 11 10 8 5 8 6 2 1 30 30 31 31 30 31 32 29 26 23 21 19 18 17 17 16 14 13 12 11 11 10 9 8 7 5 5 7 8 9 10 10 10
4 4 2 3 4 5 10 10 10 9 6 3 6 5 6 7 34 31 30 32 31 28 27 28 27 25 22 20 17 16 15 16 15 14 13 12 10 10 9 8 6 6 6 7 8 10 9 10 10
4 4 2 3 3 2 17 10 17 4 6 4 6 2 9 23 34 29 26 27 26 24 25 25 24 24 22 19 17 16 15 16 16 15 14 12 11 10 9 7 7 6 7 8 8 8 9 9 9
4 3 7 8 6 6 5 14 15 7 5 2 1 3 20 26 27 22 19 18 23 24 24 23 23 21 21 20 19 18 18 17 17 17 17 16 14 12 10 8 9 8 8 9 9 9 9 10 9
5 6 6 4 15 13 8 7 4 12 3 9 14 11 14 18 18 18 17 22 25 26 25 24 23 21 21 20 19 20 20 20 21 19 18 15 14 12 12 10 10 10 8 9 10 10 11 11 9
3 8 9 15 17 1 5 6 4 7 9 16 11 19 11 12 9 15 16 21 25 27 24 23 22 21 19 18 20 21 22 22 21 20 19 18 14 13 14 11 10 11 11 10 11 11 11 11 10
3 7 9 9 2 8 5 5 6 6 6 16 15 16 14 10 10 16 23 23 26 25 25 22 21 21 21 20 18 20 20 20 20 20 21 21 21 16 12 12 12 12 11 12 13 13 12 12 12
4 11 11 4 5 3 2 5 6 6 10 18 14 11 9 3 14 15 18 22 25 23 24 24 23 22 21 21 20 21 21 20 20 21 22 22 22 20 18 15 14 13 14 12 13 14 13 14 15
6 6 8 2 2 1 2 1 3 10 16 18 17 16 14 19 29 20 25 25 28 26 24 25 23 21 20 19 19 20 22 23 22 21 20 21 22 22 21 18 15 17 15 13 15 14 15 14 13
6 5 4 7 2 3 8 6 5 9 19 16 16 13 8 16 27 22 30 31 30 28 27 24 23 20 20 19 18 15 15 20 20 20 22 23 24 19 20 18 18 17 19 14 15 15 17 16 14
6 2 5 8 5 3 2 3 15 11 16 12 12 12 9 6 27 25 29 35 32 30 30 27 23 21 18 15 13 12 13 15 16 19 19 17 21 21 20 20 20 18 20 20 18 17 18 14 14
5 3 5 7 5 7 3 9 3 20 18 16 14 12 18 18 12 11 14 21 34 30 27 23 19 19 18 16 15 13 12 12 11 14 15 17 21 23 22 22 21 20 20 21 18 17 18 15 16
4 5 9 6 7 2 4 4 3 11 19 20 13 10 13 15 14 28 37 29 9 26 28 27 23 20 20 17 13 12 13 12 14 15 14 16 16 20 20 21 20 21 23 23 21 20 19 15 14
9 10 8 8 7 4 10 11 11 9 8 17 16 11 11 11 15 33 36 44 26 19 31 25 22 23 19 17 13 9 10 11 14 16 16 19 16 15 22 23 24 23 24 24 21 22 20 20 16
8 5 5 8 2 1 6 7 5 4 5 12 10 10 4 11 16 17 25 40 29 21 18 26 20 19 16 13 9 8 9 11 14 14 14 14 14 13 17 23 23 24 25 26 25 25 22 20 21
5 10 7 6 3 4 7 4 2 5 6 7 10 11 13 12 13 18 22 20 18 22 18 19 16 15 12 9 6 5 6 7 10 13 13 14 14 15 15 21 24 25 23 26 25 24 27 23 22
10 6 7 3 2 3 6 5 6 3 12 15 16 17 10 12 4 10 13 21 23 20 14 16 17 14 10 6 4 3 3 5 9 10 11 13 15 16 17 18 22 24 23 25 26 27 25 25 24
5 1 7 6 3 4 5 5 5 2 5 3 9 18 10 14 8 9 14 17 17 13 18 21 20 15 10 7 4 3 4 7 7 7 8 12 7 10 14 16 18 22 22 24 26 26 26 25 27
4 6 3 4 4 6 4 3 7 5 2 3 8 10 13 14 12 9 9 16 19 21 28 24 20 17 11 8 4 4 5 6 7 8 9 8 4 6 11 14 16 19 21 21 24 26 26 26 27
5 9 6 5 4 6 5 3 5 7 7 8 7 7 16 13 11 11 13 18 20 24 25 23 19 18 13 8 6 7 7 10 12 13 9 8 5 1 5 11 14 18 18 19 21 23 26 27 25
5 3 7 6 2 3 3 3 7 8 5 16 10 15 12 7 7 8 10 19 20 22 25 20 19 16 14 10 8 9 11 13 16 14 13 10 7 3 1 7 12 15 17 16 18 21 23 26 21
11 5 2 3 2 5 5 4 5 5 5 14 14 14 14 13 8 13 10 16 23 26 22 18 16 14 12 10 8 9 11 13 14 15 15 15 12 7 2 1 7 11 14 14 16 17 17 21 21
2 1 5 5 5 5 2 6 6 10 4 11 13 13 18 12 3 11 11 19 27 25 21 19 16 13 10 8 9 10 9 11 13 14 13 13 13 11 11 8 3 5 8 11 11 13 14 17 18
7 9 6 5 6 3 5 5 5 3 10 12 10 14 17 13 8 5 8 17 22 23 20 17 15 13 9 10 9 11 8 8 9 10 10 11 14 13 11 16 13 10 9 9 11 10 10 14 15
Wind_Direction
343 300 266 204 53 45 339 102 97 74 65 82 88 96 102 98 98 173 152 167 161 159 162 161 156 153 149 144 142 138 135 130 127 125 126 123 126 125 124 126 127 127 129 134 139 133 124 122 131
343 75 148 34 61 42 44 27 38 80 80 65 80 99 95 76 77 122 126 161 160 159 162 162 159 158 155 150 148 147 144 138 136 135 134 132 134 133 130 130 127 128 133 135 141 135 127 124 131
353 49 66 72 40 84 109 36 10 77 63 77 114 53 37 109 128 150 151 154 158 159 163 162 162 163 161 157 156 156 155 149 145 144 142 139 135 140 139 138 132 133 140 142 147 147 135 130 127
346 20 39 72 299 272 102 92 15 309 0 86 23 83 278 286 133 150 154 159 159 161 162 162 163 164 163 164 163 162 161 156 153 151 147 143 140 144 146 144 144 147 147 157 155 170 154 146 132
34 68 68 113 265 321 143 135 183 247 275 53 286 126 91 41 142 146 152 159 160 163 163 164 165 163 163 164 165 163 164 162 161 158 155 149 149 151 154 153 159 154 155 158 164 178 178 166 150
32 71 29 190 240 354 131 173 168 216 222 348 79 126 142 92 139 150 155 159 158 160 165 166 167 162 161 164 166 166 166 168 168 167 163 160 159 159 160 158 166 163 169 172 172 176 183 185 162
117 88 231 25 252 8 136 141 225 183 190 240 151 121 149 258 154 161 160 158 159 161 165 168 167 165 164 165 167 168 170 173 174 174 173 170 168 169 169 173 170 177 177 188 180 177 187 191 178
110 91 354 320 347 128 135 150 203 201 192 63 166 168 178 187 148 152 155 157 161 160 166 170 171 170 170 169 169 171 175 178 178 181 183 179 177 175 180 187 196 185 192 199 195 185 198 198 193
85 62 223 254 165 228 144 163 208 321 132 239 191 124 155 138 136 134 136 146 154 162 169 174 174 174 175 176 172 174 180 183 182 182 184 182 187 182 187 199 210 212 202 204 208 201 202 206 199
105 131 219 218 215 172 190 198 174 189 149 280 121 12 127 129 134 136 143 144 154 165 170 175 177 176 177 178 176 178 180 182 189 189 189 193 187 185 193 203 220 223 212 210 209 211 207 213 209
188 213 204 243 257 246 200 269 139 144 194 217 177 148 147 128 134 137 149 158 166 169 174 181 178 176 179 178 182 183 187 189 192 195 200 197 194 187 193 206 213 212 221 218 210 213 211 217 216
266 244 242 258 244 228 202 199 211 180 195 182 165 141 144 144 148 155 161 161 170 176 183 182 182 180 181 181 188 192 194 196 196 196 198 198 198 194 203 210 217 219 225 222 221 216 214 220 216
244 290 300 298 297 284 200 176 207 237 146 139 142 139 150 150 156 179 177 176 175 182 186 186 187 186 189 191 196 196 199 204 206 205 203 201 205 197 200 212 214 222 226 223 225 217 214 220 216
297 302 290 348 36 44 25 155 132 60 129 132 125 45 50 342 178 177 190 185 187 193 193 189 192 194 196 203 205 202 204 209 210 217 218 215 212 215 221 219 228 222 224 227 225 223 214 212 218
278 315 319 314 259 184 7 352 115 143 134 121 84 68 4 336 315 186 195 193 191 197 199 192 192 194 197 203 210 206 210 214 213 218 224 219 226 232 231 224 226 223 219 220 223 225 223 219 215
338 39 359 278 256 195 88 270 111 112 112 124 129 82 51 327 317 241 195 196 192 189 192 195 190 190 198 201 202 211 207 210 221 221 230 237 234 229 221 222 227 221 219 221 224 220 217 215 210
7 264 267 306 78 150 138 252 119 103 117 142 118 113 135 273 285 299 192 193 191 184 189 190 189 191 190 194 202 209 213 226 232 231 238 243 229 229 227 226 228 222 220 218 217 218 221 211 209
184 216 266 274 303 44 92 248 297 149 134 151 147 151 165 197 238 11 338 187 180 181 185 195 200 199 200 202 211 220 225 234 238 234 241 241 252 240 237 229 233 226 220 220 217 218 222 218 210
250 195 246 257 252 36 260 262 157 142 134 148 172 201 161 191 103 66 24 337 285 193 192 195 194 197 199 206 208 213 238 246 245 247 242 251 246 240 232 232 231 231 223 221 217 218 216 211 205
260 266 235 289 262 132 276 284 77 101 155 164 172 213 161 156 143 108 143 252 237 225 199 192 195 192 202 213 218 231 254 264 265 267 258 255 251 231 233 234 230 227 228 227 223 218 213 216 212
258 211 250 239 352 311 18 323 110 158 208 176 203 213 201 204 146 147 164 227 196 211 219 186 186 184 193 213 225 243 255 265 273 278 276 268 271 263 240 235 231 227 227 226 220 222 218 205 207
241 252 248 289 333 229 135 259 82 152 172 207 183 215 236 224 166 160 174 225 226 207 213 197 190 187 187 209 219 237 265 281 296 298 289 282 270 258 241 233 230 229 225 222 221 221 217 214 206
227 233 239 198 147 62 324 65 265 180 168 209 203 215 233 229 188 165 192 211 223 203 230 189 169 164 167 172 174 203 250 284 297 295 291 293 276 256 242 233 227 226 224 222 223 226 226 218 210
234 133 41 36 73 13 255 137 285 169 286 197 159 192 196 205 193 205 208 217 218 204 190 159 157 154 156 150 125 46 356 336 320 308 318 320 269 252 232 230 229 228 223 221 221 226 229 225 220
110 66 355 350 11 230 308 91 236 269 19 161 224 166 161 162 171 190 195 205 196 153 145 150 152 148 153 146 110 48 26 23 353 8 356 352 293 249 229 224 225 224 223 222 222 228 232 228 226
193 151 155 198 199 255 318 258 250 268 238 284 146 164 132 150 162 150 151 136 134 136 145 153 152 153 165 149 112 72 67 60 49 41 25 0 341 359 210 222 225 222 225 224 227 231 232 232 231
234 177 191 135 85 55 247 278 303 319 323 59 48 142 139 150 128 129 121 128 142 150 149 149 154 157 159 152 119 97 88 70 62 66 64 45 26 2 283 214 216 220 223 227 227 233 232 229 224
171 164 84 17 163 268 293 253 222 242 181 92 70 317 56 7 350 139 135 140 149 154 154 152 155 153 154 141 115 107 90 78 68 63 59 55 49 49 70 241 229 228 224 222 225 232 240 229 208
63 171 68 117 143 173 224 269 224 211 41 94 105 145 144 153 273 314 143 148 150 153 154 150 155 148 151 150 126 118 94 92 73 62 58 54 53 59 65 66 102 203 214 211 214 223 220 193 177
191 214 156 131 254 224 151 257 272 137 150 120 135 142 155 165 119 8 256 161 154 156 162 162 159 152 158 158 147 131 107 94 78 65 65 60 52 59 63 72 73 92 122 159 172 147 128 151 157
Height
762 763 764 765 787 793 796 787 761 770 771 759 754 763 773 768 779 803 775 778 783 788 793 797 800 802 805 806 808 809 810 811 812 813 816 816 817 818 820 822 823 825 827 828 828 828 829 830 832
763 763 765 769 802 822 811 788 788 770 766 759 759 763 769 780 766 774 779 782 781 786 792 795 799 803 805 806 807 809 810 811 813 813 815 816 819 818 820 823 824 826 827 829 830 830 830 831 833
762 762 774 794 810 816 819 800 797 776 764 759 763 765 768 773 769 772 774 778 782 785 789 793 796 801 804 805 807 808 810 811 814 815 816 818 818 819 821 823 824 827 829 829 831 832 831 832 833
760 763 780 810 807 790 808 802 803 789 751 756 766 775 767 761 761 766 774 778 781 784 788 792 795 799 801 804 805 807 810 812 814 816 817 819 820 821 823 824 825 826 828 830 831 833 833 833 833
762 774 806 813 803 791 785 782 782 783 769 761 764 776 773 766 763 768 774 778 779 783 787 792 796 798 800 804 806 808 810 812 815 817 819 820 822 824 824 825 826 827 828 830 831 834 835 834 834
775 782 811 820 803 783 782 782 782 780 767 765 771 776 775 769 769 774 775 777 779 782 787 792 796 797 799 802 806 807 809 812 814 817 819 821 822 824 825 826 827 827 828 829 832 833 834 835 834
782 799 808 805 799 791 783 783 786 776 772 771 763 778 774 767 770 773 776 777 780 782 786 791 794 795 799 802 805 807 809 812 815 817 820 821 822 823 825 827 827 828 829 830 831 833 834 835 836
771 791 804 800 800 802 783 776 772 769 774 759 762 778 780 765 768 773 775 777 781 785 788 790 793 795 799 802 804 807 810 812 814 817 819 820 822 822 824 826 828 828 830 831 832 832 833 834 835
766 805 814 801 798 787 772 773 768 760 763 763 761 762 761 764 770 776 780 782 785 788 790 793 793 795 799 803 805 807 809 812 813 815 817 820 821 822 824 826 828 829 829 830 831 832 833 833 834
781 810 796 777 771 774 760 758 766 769 768 769 765 764 766 769 772 777 781 784 786 788 789 791 792 795 798 800 803 805 807 809 812 813 816 816 817 818 821 824 826 828 829 830 831 832 832 833 833
775 790 771 767 758 751 762 755 750 766 775 765 763 765 769 770 774 777 782 783 785 787 789 789 790 793 796 798 802 803 806 807 809 811 814 816 817 817 819 822 824 827 829 830 830 832 831 831 832
778 764 761 752 745 748 754 748 753 748 747 744 752 756 767 770 774 778 782 785 787 787 787 789 791 792 796 798 799 801 804 805 807 809 811 813 815 816 818 820 822 824 826 828 829 831 831 831 832
769 758 750 747 744 747 738 750 752 750 740 747 756 763 768 773 776 781 782 786 787 786 787 790 792 794 794 796 797 799 802 805 807 808 809 809 812 814 816 818 820 822 825 826 828 829 829 830 831
761 758 753 749 746 743 745 748 744 753 747 758 768 782 785 786 778 779 783 784 786 787 787 789 792 794 796 796 795 798 800 802 804 807 808 808 809 811 813 815 817 819 822 825 826 828 828 828 830
758 767 754 748 743 747 739 756 758 751 753 767 783 782 795 799 796 777 780 782 781 784 788 787 791 795 795 796 796 796 798 800 802 803 805 807 808 808 810 812 814 816 820 822 824 825 827 827 828
771 777 789 750 742 743 746 780 762 759 763 771 770 772 780 782 792 783 776 780 777 779 782 787 788 791 794 796 797 797 798 800 801 800 802 803 805 806 807 809 811 812 816 819 822 823 824 825 826
790 800 791 766 743 748 750 768 762 761 770 773 772 771 768 784 786 792 776 777 778 776 781 783 785 790 793 795 795 797 797 799 799 799 799 800 800 803 804 806 809 810 812 816 819 821 823 821 824
800 795 790 783 750 749 758 762 751 757 774 778 770 767 772 773 784 790 788 778 778 779 782 785 785 788 791 793 796 795 795 795 796 796 797 798 798 798 800 803 807 808 809 812 815 817 821 820 822
778 786 787 768 749 758 759 762 753 761 772 777 779 775 771 773 794 790 786 778 782 781 779 779 781 784 788 789 792 793 792 792 793 794 794 793 793 794 796 799 803 805 806 808 811 814 817 818 820
774 782 785 765 748 762 759 764 765 767 773 768 771 765 774 786 783 775 787 778 777 779 775 777 779 782 786 789 790 790 789 789 789 789 790 790 789 790 792 794 798 801 803 805 808 811 813 815 817
774 776 770 770 751 757 766 775 766 769 766 771 770 761 765 774 776 770 771 772 769 773 772 775 779 781 783 788 787 788 787 787 786 786 785 785 786 787 787 789 793 796 799 801 804 808 809 812 815
786 753 755 758 768 792 765 813 779 774 780 774 770 768 762 758 755 759 764 769 770 772 773 776 780 782 783 787 785 786 785 785 784 783 781 781 782 783 783 784 787 791 794 797 800 804 807 808 810
765 744 752 750 770 777 775 801 791 767 784 777 770 769 759 751 753 754 758 766 768 768 775 777 781 783 783 785 785 785 784 782 782 780 778 777 776 776 777 779 783 786 789 792 796 800 803 805 807
730 743 766 774 788 813 782 793 796 782 767 761 757 761 754 754 755 756 759 761 768 773 775 778 782 783 783 784 785 783 781 780 779 777 775 773 771 772 772 775 779 782 785 788 792 796 799 801 803
739 778 819 816 823 822 781 793 787 772 754 748 749 756 748 751 755 761 764 768 772 772 776 781 782 781 784 785 783 782 780 779 778 774 772 772 771 769 770 772 775 778 782 785 789 793 796 797 800
751 773 814 825 829 815 781 792 779 756 759 748 742 745 742 752 754 760 763 768 772 775 779 781 779 781 786 784 782 781 781 780 776 773 773 773 772 770 770 771 773 776 779 782 786 790 792 794 798
749 770 759 791 797 814 799 780 768 754 750 743 752 748 755 760 757 761 765 766 774 777 777 777 781 784 784 784 782 782 781 781 777 775 774 774 773 772 771 772 772 773 777 780 784 786 788 792 796
731 736 774 800 806 816 805 790 790 774 754 755 782 782 777 785 777 763 765 771 771 775 777 780 783 784 784 783 782 783 782 780 779 778 776 776 775 773 772 772 772 773 775 778 781 784 786 789 792
743 752 764 778 794 812 822 804 762 763 762 765 774 772 767 767 773 784 768 770 771 772 775 777 781 782 784 784 782 782 782 781 780 778 779 779 778 776 774 772 772 773 774 777 780 783 785 786 789
726 744 757 792 787 795 799 796 750 749 763 761 769 760 754 750 754 778 778 772 769 770 774 777 779 780 782 782 783 782 783 782 780 780 782 781 780 779 777 776 775 775 774 777 780 782 785 787 790